User: anonymous   Login
Location: Banksville Park
(38.5557°N, 75.1182°W)
Time: 13:43:10
(UTC+00:00)
Language:

Cosmos 1821 Rocket - Orbit

View from above orbital plane
View from above orbital plane
View from above satellite
View from above satellite

Ground track
Ground track

The orbit data is extracted from the following two-line orbital elements,

1 17526U 87017B   20333.58333191 +.00000152 +00000-0 +13787-3 0  9995
2 17526 082.9012 178.2683 0041121 034.7035 325.6792 13.76884018679531
Epoch (UTC): 28 November 2020 13:59:59
Eccentricity: 0.0041121
inclination: 82.9012°
perigee height: 945 km
apogee height: 1005 km
right ascension of ascending node: 178.2683°
argument of perigee: 34.7035°
revolutions per day: 13.76884018
mean anomaly at epoch: 325.6792°
orbit number at epoch: 67953

The dashed part of the orbit path shows where the satellite is in the earth's shadow,  

DLR